Location: Eagan
(44.8336°N, 93.1671°W)
Time: 08:27:10
(UTC+00:00)

Envisat - Visible Passes

Search period start: 11 October 2024 00:00
Search period end: 21 October 2024 00:00
Orbit: 762 x 764 km, 98.3° (Epoch: 10 October)

Date Brightness Start Highest point End Pass type
(mag) Time Alt. Az. Time Alt. Az. Time Alt. Az.
11 Oct 4.0 09:25:46 10° NNE 09:29:00 40° NNE 09:29:00 40° NNE visible
11 Oct 4.7 11:06:28 10° NNW 11:09:07 14° WNW 11:09:08 14° WNW visible
12 Oct 5.0 08:48:32 10° NNE 08:50:56 25° NE 08:50:56 25° NE visible
12 Oct 4.1 10:27:46 10° N 10:31:04 26° NW 10:31:04 26° NW visible
13 Oct 5.8 08:12:01 10° NE 08:12:52 13° NE 08:12:52 13° NE visible
13 Oct 3.9 09:49:49 10° N 09:53:00 37° N 09:53:00 37° N visible
14 Oct 4.6 09:12:17 10° NNE 09:14:56 31° NNE 09:14:56 31° NNE visible
14 Oct 4.5 10:52:23 10° NNW 10:55:04 18° NW 10:55:04 18° NW visible
15 Oct 5.4 08:35:15 10° NE 08:36:52 18° NE 08:36:52 18° NE visible
15 Oct 4.1 10:14:03 10° N 10:17:00 29° NNW 10:17:00 29° NNW visible
16 Oct 4.3 09:36:14 10° N 09:38:55 32° N 09:38:55 32° N visible
16 Oct 4.9 11:17:40 10° NW 11:19:04 12° NW 11:19:04 12° NW visible
17 Oct 5.1 08:58:51 10° NNE 09:00:50 23° NE 09:00:50 23° NE visible
17 Oct 4.5 10:38:27 10° NNW 10:40:58 21° NW 10:40:58 21° NW visible
18 Oct 5.8 08:22:03 10° NE 08:22:45 13° NE 08:22:45 13° NE visible
18 Oct 4.3 10:00:20 10° N 10:02:54 28° NNW 10:02:54 28° NNW visible
19 Oct 4.7 09:22:40 10° NNE 09:24:49 26° NNE 09:24:49 26° NNE visible
19 Oct 4.8 11:03:14 10° NNW 11:04:57 14° NW 11:04:57 14° NW visible
20 Oct 5.5 08:45:27 10° NNE 08:46:43 17° NE 08:46:43 17° NE visible
20 Oct 4.5 10:24:37 10° N 10:26:51 22° NNW 10:26:51 22° NNW visible
